Terminal Aerodrome Forecast
Issued by NWS Amarillo, TX

Home | Current Version | Previous Version | Text Only | Print | Product List | Glossary On
Versions: 1 2 3 4 5 6 7 8 9 10 11 12 13 14 15 16 17
000
FTUS44 KAMA 292320
TAFGUY
TAF
KGUY 292320Z 3000/3024 17010KT P6SM BKN100
     FM300800 16008KT P6SM SCT020 BKN110
     FM301700 20012G20KT P6SM BKN150=

USA.gov is the U.S. government's official web portal to all federal, state and local government web resources and services.